Weather History for KUKI - August, 2012

Change the Weather History Date:

Monday, August 6, 2012

  Actual Average Record
Temperature  
Mean Temperature 73 °F 74 °F  
Max Temperature 94 °F 93 °F 111 °F (1978)
Min Temperature 52 °F 54 °F 42 °F (1917)
Degree Days  
Heating Degree Days 0 0  
Month to date heating degree days 0 0  
Since 1 June heating degree days 63 33  
Since 1 July heating degree days 0 1  
Cooling Degree Days 8 9  
Month to date cooling degree days 58 54  
Year to date cooling degree days 507 497  
Since 1 June cooling degree days 445 445  
Growing Degree Days 22 (Base 50)    
Moisture  
Dew Point 52 °F    
Average Humidity 59    
Maximum Humidity 96    
Minimum Humidity 21    
Precipitation  
Precipitation 0.00 in 0.00 in 0.00 in (2015)
Month to date precipitation T 0.00  
Year to date precipitation 18.92 23.42  
Since 1 July precipitation T 0.04  
Snow  
Snow 0.00 in - - ()
Month to date snowfall 0.0  
Since 1 June snowfall 0.0  
Since 1 July snowfall 0.0  
Snow Depth 0.00 in    
Sea Level Pressure  
Sea Level Pressure 30.07 in    
Wind  
Wind Speed 2 mph (NNE)    
Max Wind Speed 12 mph    
Max Gust Speed 15 mph    
Visibility 8 miles    
Events Fog    
T = Trace of Precipitation, MM = Missing Value Source: NWS Daily Summary

Daily Weather History Graph

Daily Weather History Graph

Search for Another Location

Airport or City:

Trip Planner

Search our weather history database for the weather conditions in past years. The results will help you decide how hot, cold, wet, or windy it might be!

Date:

Astronomy

Aug. 06, 2012 Rise Set
Actual Time 6:18 AM PDT 8:18 PM PDT
Civil Twilight 5:48 AM PDT 8:47 PM PDT
Nautical Twilight 5:13 AM PDT 9:23 PM PDT
Astronomical Twilight 4:34 AM PDT 10:01 PM PDT
Moon 10:32 PM PDT 11:10 AM PDT
Length of Visible Light 14h 58m
Length of Day
14h 00m
Waning Gibbous, 77% of the Moon is Illuminated
Aug 6
Waning Gibbous
Aug 9
Last Quarter
Aug 17
New
Aug 24
First Quarter
Aug 31
Full

Hourly Weather History & Observations

Time (PDT) Temp. Heat Index Dew Point Humidity Pressure Visibility Wind Dir Wind Speed Gust Speed Precip Events Conditions
12:56 AM 59.0 °F - 54.0 °F 83% 30.06 in 10.0 mi Calm Calm - N/A   Clear
1:56 AM 57.0 °F - 53.1 °F 87% 30.07 in 10.0 mi Calm Calm - N/A   Clear
2:56 AM 55.9 °F - 52.0 °F 87% 30.07 in 10.0 mi Calm Calm - N/A   Clear
3:56 AM 54.0 °F - 51.1 °F 90% 30.07 in 10.0 mi Calm Calm - N/A   Clear
4:56 AM 54.0 °F - 52.0 °F 93% 30.07 in 10.0 mi Calm Calm - N/A   Clear
5:56 AM 52.0 °F - 50.0 °F 93% 30.08 in 10.0 mi Calm Calm - N/A   Clear
6:35 AM 51.8 °F - 50.0 °F 94% 30.11 in 10.0 mi Calm Calm - N/A   Scattered Clouds
6:46 AM 51.8 °F - 50.0 °F 94% 30.11 in 10.0 mi Calm Calm - N/A   Mostly Cloudy
6:56 AM 53.1 °F - 51.1 °F 93% 30.10 in 10.0 mi Calm Calm - N/A   Overcast
7:07 AM 53.6 °F - 51.8 °F 94% 30.12 in 6.0 mi Calm Calm - N/A   Overcast
7:40 AM 53.6 °F - 53.6 °F 100% 30.12 in 0.8 mi Calm Calm - N/A   Overcast
7:56 AM 55.0 °F - 54.0 °F 96% 30.11 in 0.5 mi Calm Calm - N/A Fog Fog
8:06 AM 55.4 °F - 55.4 °F 100% 30.12 in 0.2 mi Calm Calm - N/A Fog Fog
8:30 AM 55.4 °F - 55.4 °F 100% 30.13 in 0.8 mi Calm Calm - N/A   Mist
8:38 AM 55.4 °F - 55.4 °F 100% 30.13 in 1.8 mi Calm Calm - N/A   Overcast
8:45 AM 55.4 °F - 53.6 °F 94% 30.13 in 2.5 mi Calm Calm - N/A   Overcast
8:53 AM 55.4 °F - 53.6 °F 94% 30.13 in 5.0 mi Calm Calm - N/A   Overcast
8:56 AM 55.4 °F - 53.6 °F 94% 30.13 in 5.0 mi Calm Calm - N/A   Overcast
9:17 AM 57.2 °F - 55.4 °F 94% 30.12 in 10.0 mi Calm Calm - N/A   Scattered Clouds
9:56 AM 66.0 °F - 55.0 °F 68% 30.10 in 10.0 mi Calm Calm - N/A   Clear
10:56 AM 72.0 °F - 55.9 °F 57% 30.09 in 10.0 mi Calm Calm - N/A   Clear
11:56 AM 78.1 °F - 57.0 °F 48% 30.08 in 10.0 mi Calm Calm - N/A   Clear
12:56 PM 84.0 °F 82.5 °F 53.1 °F 34% 30.05 in 10.0 mi East 3.5 mph - N/A   Clear
1:56 PM 90.0 °F - 51.1 °F 26% 30.04 in 10.0 mi East 5.8 mph - N/A   Clear
2:56 PM 91.9 °F - 46.0 °F 21% 30.02 in 10.0 mi Variable 3.5 mph - N/A   Clear
3:56 PM 93.0 °F 90.6 °F 53.1 °F 26% 30.01 in 10.0 mi North 8.1 mph - N/A   Clear
4:56 PM 91.9 °F - 46.9 °F 21% 30.00 in 10.0 mi West 10.4 mph - N/A   Clear
5:56 PM 90.0 °F - 48.9 °F 24% 29.99 in 10.0 mi West 11.5 mph - N/A   Clear
6:56 PM 86.0 °F - 52.0 °F 31% 29.99 in 10.0 mi NE 5.8 mph - N/A   Clear
7:56 PM 80.1 °F - 51.1 °F 36% 30.01 in 10.0 mi North 5.8 mph - N/A   Clear
8:56 PM 75.0 °F - 50.0 °F 41% 30.03 in 10.0 mi Calm Calm - N/A   Clear
9:56 PM 72.0 °F - 50.0 °F 46% 30.04 in 10.0 mi Calm Calm - N/A   Clear
10:56 PM 66.9 °F - 50.0 °F 54% 30.03 in 10.0 mi Calm Calm - N/A   Clear
11:56 PM 64.9 °F - 48.9 °F 56% 30.04 in 10.0 mi Calm Calm - N/A   Clear